Miscellaneous Local Product
Issued by NWS North Platte, NE

Home | Current Version | Previous Version | Text Only | Print | Product List | Glossary On
Versions: 1 2 3 4 5 6 7 8 9 10 11 12 13 14 15 16 17 18 19 20 21 22 23 24 25 26 27 28 29 30 31 32 33 34 35 36 37 38 39 40 41 42 43 44 45 46 47 48 49 50
000
AXUS43 KLBF 121710
MISLBF


WESTERN AND NORTH CENTRAL NEBRASKA HOURLY WEATHER ROUNDUP
NATIONAL WEATHER SERVICE NORTH PLATTE NE
1200 PM CDT SAT JUL 12 2014

***STATIONS NOT REPORTING VARIABLES SUCH AS SKY/WEATHER OR
PRESSURE ARE PROVIDED BY THE NEBRASKA DEPARTMENT OF
ROADS...RAWS...AND APRS NETWORKS...AND ARE NOT UNDER
NATIONAL WEATHER SERVICE QUALITY CONTROL***

...OBSERVATIONS IN AND NEAR THE EASTERN PANHANDLE OF NEBRASKA...

CITY           SKY/WX    TMP DP  RH WIND       PRES   REMARKS
PINE RIDGE     PTSUNNY   71  61  70 E6        30.19R
CHADRON        PTSUNNY   74  57  55 NW3       30.19R
ALLIANCE       PTSUNNY   72  60  66 N10       30.21S
SIDNEY         CLOUDY    71  60  68 NE14      30.23R
WHITECLAY        N/A     73  62  67 CALM        N/A
RUSHVILLE        N/A     73  63  68 E13         N/A
GORDON           N/A     75  64  69 N7          N/A
CRESCENT LAKE    N/A     72  60  66 NE9G16      N/A
LISCO            N/A     77  61  58 SE9         N/A
BIG SPRINGS      N/A     70  65  83 NE6         N/A
$$

...OBSERVATIONS IN NORTH CENTRAL NEBRASKA...

CITY           SKY/WX    TMP DP  RH WIND       PRES   REMARKS
VALENTINE      CLOUDY    71  64  78 N9        30.13R
THEDFORD       PTSUNNY   77  67  71 N8        30.12S
AINSWORTH      PTSUNNY   74  66  76 NE6       30.11S
O`NEILL        CLOUDY    68  64  89 NE9       30.10S
ORD            CLOUDY    71  66  84 N13       30.05R
BROKEN BOW     CLOUDY    71  67  87 N14       30.09R
BROWNLEE         N/A     80  63  56 NE8         N/A
SPRINGVIEW       N/A     75  68  78 NE5         N/A
ROSE             N/A     76  73  88 N6          N/A
NEWPORT          N/A     72  69  88 CALM        N/A
SARGENT          N/A     71  67  88 CALM        N/A
COMSTOCK         N/A     78  72  81 N12         N/A
CHAMBERS         N/A     74  67  77 E7          N/A
$$

...OBSERVATIONS IN SOUTHWEST NEBRASKA AND FAR NORTHEAST COLORADO...

CITY           SKY/WX    TMP DP  RH WIND       PRES   REMARKS
WRAY           CLOUDY    75  66  73 N14       30.16S
HOLYOKE        CLOUDY    77  64  65 N13       30.17S
IMPERIAL       CLOUDY    75  66  73 N16       30.14R
OGALLALA       CLOUDY    73  63  70 N13G18    30.15R
NORTH PLATTE   CLOUDY    73  66  78 N8        30.10S
MCCOOK         MOSUNNY   82  69  64 N15       30.06R
LEXINGTON      CLOUDY    76  69  79 N10       30.06R
PAXTON           N/A     71  68  90 N6          N/A
SUTHERLAND       N/A     80  73  78 N8          N/A
BRADY            N/A     72  66  80 CALM        N/A
GOTHENBURG       N/A     71  63  77 N9          N/A
CALLAWAY         N/A     68  67  98 N10         N/A
$$

...NORTH PLATTE AREA...

CITY           SKY/WX    TMP DP  RH WIND       PRES   REMARKS
AIRPORT        CLOUDY    73  66  78 N8        30.10S
INDIAN HILLS     N/A     78  68  70 MISG        N/A
$$

...SOME WEATHER OBSERVATIONS FROM AROUND THE REGION...

CITY           SKY/WX    TMP DP  RH WIND       PRES   REMARKS
DENVER         CLOUDY    70  61  73 N9        30.29R
LARAMIE        RAIN      61  56  83 S5        30.40R VSB 3/4
CHEYENNE       MOSUNNY   67  58  72 NE10G18   30.34R
SCOTTSBLUFF    CLOUDY    69  59  70 SE7       30.23R
RAPID CITY     CLOUDY    64  61  90 SE7       30.19S
PIERRE         MOSUNNY   71  62  73 E6        30.09R
WINNER         CLOUDY    76  66  71 NE6       30.09S
SIOUX FALLS    LGT RAIN  75  66  73 W3        30.06R
OMAHA          CLOUDY    82  71  69 SE5       29.97F
GRAND ISLAND   MOSUNNY   84  68  58 NW8       30.02R
KANSAS CITY    PTSUNNY   86  71  60 SW12      30.04F HX  91
WICHITA        MOSUNNY   88  66  48 SW18G29   30.07F HX  90
HAYS           SUNNY     90  61  37 SW16      30.01F
LIBERAL        SUNNY     88  63  42 S18G29    30.12F
GOODLAND       SUNNY     83  66  56 N14G20    30.12R
$$



USA.gov is the U.S. government's official web portal to all federal, state and local government web resources and services.